CZ-6A DEB, 54476

Orbit data source: Space-Track

CZ-6A DEB, 54476 is space debris in SSO originally from a launch on Fri, 11 Nov 2022 UTC launched from the Taiyaun Space Center, China (TSC). Debris objects in space refer to the collection of defunct objects orbiting the Earth. Examples of debris include non-operational satellites, rocket bodies, and fragments generated from explosions, collisions, or faulty payload assembly.

Loading next visibility...
Identifier
54476, 2022-151HC
Orbit
SSO
Country
Flag of CNCN / PRC
Related business
Manufacturer
SAST
Mission
Spacecraft
Bus & Motor
Unknown
Mass
Unknown
Launch date (UTC)
2022-11-11 (4 years ago)
Launch vehicle
Unknown
Launch site
Taiyaun Space Center, China (TSC)
Object type
Payload
Rocket body
Debris
Shape & HBR
Unknown shape, 0.1 m
Radar Cross Section
Small (<0.1 m²)

Expand to show TLE details & history
Last TLE update: 2 days ago

TLE from 2 days ago
0 CZ-6A DEB
1 54476U 22151HC  26171.37188911  .00002192  00000-0  56870-3 0  9995
2 54476  98.6048 211.2626 0105679 349.8430  10.0626 14.47534753189187
Epoch: 2026-06-20T08:55Z
TLE epoch observation values (Epoch: 2026-06-20T08:55:31.219Z)
Latitude
0.00003°
Longitude
168.79505°
Altitude
662.676 km
Speed
7.565 km/s
True Right ascension
14h 05m 03s
True Declination
0° 00' 00"
Sunlit
Object was in full shadow at epoch
Visualization orbit readout
Latitude
Unknown
Longitude
Unknown
Altitude
Unknown
Speed
Unknown
Apparent Right ascension
Unknown
Apparent Declination
Unknown
Sunlit
N/A
Visualization observer readout
Local Sidereal Time
21:51:54
Azimuth
Unknown
Elevation
Unknown
Doppler factor
Unknown
Orbital elements
Apogee altitude
805.955 km
Perigee altitude
655.701 km
Semi-major axis
7,108.965 km
Eccentricity
0.01057
Inclination
98.6048°
RAAN
211.2626°
Arg. of periapsis
349.843°
True anomaly
10.27698°
Mean anomaly
10.0626°
Eccentric anomaly
10.16951°
Mean motion
3.62104 °/min
Orbital period
99.42 mins
BSTAR
0.0005687
Loading maneuver chart data...
Computing Atmospheric mass density...
Loading historical data...
Loading historical data...
Loading historical data...
Loading historical data...
Loading historical data...
Loading historical data...
Loading historical data...

Documentation

Showing up to 5 results
|